This is the latest recevied weather packets stored in our database for station/object KB0RPJ. If no packets are shown the sender has not sent any weather packets the latest 10 day(s).
| Time | Temp. | Humidity | Pressure | Rain* | Wind** | Luminosity | Snow |
|---|---|---|---|---|---|---|---|
| 1777648505 | 12.22° C | 48% | 1018 hPa | 0 mm | - | 590 W/m² | - |
| 1777648206 | 11.67° C | 48% | 1018.1 hPa | 0 mm | - | 615 W/m² | - |
| 1777647905 | 11.67° C | 51% | 1018.1 hPa | 0 mm | - | 603 W/m² | - |
| 1777647605 | 11.67° C | 51% | 1018.1 hPa | 0 mm | - | 181 W/m² | - |
| 1777647306 | 11.11° C | 52% | 1018.2 hPa | 0 mm | - | 130 W/m² | - |
| 1777647009 | 11.11° C | 53% | 1018.2 hPa | 0 mm | - | 126 W/m² | - |
| 1777646705 | 11.11° C | 55% | 1018.2 hPa | 0 mm | - | 92 W/m² | - |
| 1777646405 | 10.56° C | 55% | 1018.3 hPa | 0 mm | - | 98 W/m² | - |
| 1777646105 | 10.56° C | 58% | 1018.3 hPa | 0 mm | - | 95 W/m² | - |
| 1777645805 | 10° C | 60% | 1018.3 hPa | 0 mm | - | 97 W/m² | - |
| 1777645505 | 10° C | 63% | 1018.2 hPa | 0 mm | - | 251 W/m² | - |
| 1777645205 | 9.44° C | 64% | 1018.3 hPa | 0 mm | - | 222 W/m² | - |
| 1777644905 | 9.44° C | 64% | 1018.2 hPa | 0 mm | - | 368 W/m² | - |
| 1777644605 | 9.44° C | 64% | 1018.2 hPa | 0 mm | - | 178 W/m² | - |
| 1777644304 | 8.89° C | 65% | 1018.2 hPa | 0 mm | - | 245 W/m² | - |
| 1777644004 | 8.33° C | 68% | 1018.2 hPa | 0 mm | - | 83 W/m² | - |
| 1777643704 | 8.33° C | 67% | 1018.2 hPa | 0 mm | - | 92 W/m² | - |
| 1777643405 | 7.78° C | 69% | 1018.2 hPa | 0 mm | - | 80 W/m² | - |
| 1777643118 | 7.78° C | 71% | 1018.4 hPa | 0 mm | - | 79 W/m² | - |
| 1777642805 | 7.22° C | 72% | 1018.5 hPa | 0 mm | - | 94 W/m² | - |
| 1777642509 | 7.22° C | 72% | 1018.6 hPa | 0 mm | - | 111 W/m² | - |
| 1777642205 | 7.22° C | 73% | 1018.6 hPa | 0 mm | - | 117 W/m² | - |
| 1777641911 | 7.22° C | 74% | 1018.6 hPa | 0 mm | - | 99 W/m² | - |
| 1777641606 | 6.67° C | 75% | 1018.6 hPa | 0 mm | - | 125 W/m² | - |
| 1777641314 | 6.11° C | 74% | 1018.6 hPa | 0 mm | - | 193 W/m² | - |
* Rain latest hour (hover to see other rain measurements)
** Current wind speed in m/s (hover to see current wind gust speed)